This demonstration page uses our WeatherBlox Daily Observations layout. Learn more.

Left ArrowRight Arrow

Hourly Observations for May 17, 2019

Temp ( °F °C ) Dew Point ( °F °C ) Humidity (%) Winds ( mph kmh ) Pressure ( in mb ) Visibility ( mi km ) Precip ( " mm )
12:52 am 00:52 Cloudy 74 23.3 58 14.4 57 57 E 3 6 29.66 1004 10 16 0.00 0.00
1:11 am 01:11 Cloudy with Thunderstorms 74 23.3 58 14.4 57 57 ESE 6 9 29.65 1004 10 16 0.00 0.00
1:52 am 01:52 Cloudy 72 22.2 61 16.1 68 68 SSE 7 11 29.64 1004 10 16 0.01 0.25
2:52 am 02:52 Cloudy 71 21.7 63 17.2 76 76 N 5 7 29.64 1004 10 16 0.00 0.00
3:52 am 03:52 Cloudy 71 21.7 62 16.7 73 73 ENE 7 11 29.63 1004 10 16 0.00 0.00
4:52 am 04:52 Cloudy 69 20.6 61 16.1 76 76 ENE 7 11 29.63 1004 10 16 0.00 0.00
5:52 am 05:52 Mostly Cloudy 67 19.4 60 15.6 79 79 E 18 30 29.66 1004 10 16 0.00 0.00
6:09 am 06:09 Mostly Cloudy with Thunderstorms 68 20 61 16.1 78 78 E 18 30 29.66 1005 10 16 0.00 0.03
6:52 am 06:52 Cloudy with Thunderstorms 67 19.4 63 17.2 87 87 E 13 20 29.65 1004 10 16 0.02 0.51
7:52 am 07:52 Cloudy with Thunderstorms 68 20 65 18.3 90 90 SE 7 11 29.67 1005 10 16 0.04 1.02
8:52 am 08:52 Cloudy with Thunderstorms 69 20.6 66 18.9 90 90 ESE 13 20 29.66 1004 10 16 0.02 0.51
9:09 am 09:09 Mostly Cloudy 70 21.1 66 18.9 87 87 ESE 16 26 29.66 1004 10 16 0.00 0.03
9:18 am 09:18 Mostly Cloudy with Thunderstorms 70 21.1 66 18.9 87 87 ESE 15 24 29.66 1004 10 16 0.00 0.03
9:52 am 09:52 Mostly Cloudy with Thunderstorms 71 21.7 67 19.4 87 87 ESE 12 19 29.66 1005 10 16 0.00 0.03
10:09 am 10:09 Mostly Cloudy with Light Rain 71 21.7 67 19.4 87 87 ESE 9 15 29.66 1004 10 16 0.00 0.03
10:52 am 10:52 Mostly Cloudy 73 22.8 67 19.4 81 81 ESE 14 22 29.67 1005 10 16 0.00 0.03
11:27 am 11:27 Mostly Cloudy with Nearby Thunderstorms 73 22.8 67 19.4 81 81 ESE 16 26 29.64 1004 10 16 0.00 0.03
11:42 am 11:42 Mostly Cloudy 74 23.3 67 19.4 79 79 SE 18 30 29.63 1003 10 16 0.00 0.03
11:52 am 11:52 Mostly Cloudy 75 23.9 66 18.9 74 74 S 15 24 29.66 1004 10 16 0.00 0.03
12:52 pm 12:52 Mostly Cloudy 78 25.6 66 18.9 67 67 S 13 20 29.63 1004 10 16 0.00 0.00
1:52 pm 13:52 Mostly Cloudy 84 28.9 67 19.4 57 57 S 18 30 29.60 1002 10 16 0.00 0.00
2:52 pm 14:52 Mostly Cloudy 88 31.1 66 18.9 48 48 SSE 25 41 29.57 1001 10 16 0.00 0.00
3:52 pm 15:52 Mostly Cloudy 90 32.2 63 17.2 41 41 SSE 29 46 29.55 1001 10 16 0.00 0.00
4:52 pm 16:52 Cloudy 88 31.1 64 17.8 45 45 SSE 29 46 29.54 1000 10 16 0.00 0.00
5:52 pm 17:52 Cloudy 88 31.1 64 17.8 45 45 SSE 26 43 29.53 1000 10 16 0.00 0.00
6:52 pm 18:52 Cloudy 85 29.4 64 17.8 50 50 S 22 35 29.54 1000 10 16 0.00 0.00
7:52 pm 19:52 Cloudy 84 28.9 63 17.2 49 49 S 20 31 29.55 1001 10 16 0.00 0.00
8:52 pm 20:52 Cloudy 82 27.8 62 16.7 51 51 S 21 33 29.55 1001 10 16 0.00 0.00
9:52 pm 21:52 Cloudy with Light Rain 81 27.2 61 16.1 51 51 SSE 20 31 29.54 1000 10 16 0.00 0.03
10:52 pm 22:52 Cloudy 79 26.1 62 16.7 56 56 SSE 21 33 29.56 1001 10 16 0.00 0.03
11:52 pm 23:52 Mostly Cloudy 78 25.6 62 16.7 58 58 SSE 25 41 29.53 1000 10 16 0.00 0.00

Powered by AerisWeather